User: anonymous   Login
Location: ??????
(55.8274°N, 37.9338°E)
Time: 18:38:59
(UTC+00:00)
Language:

Meteor 2-4 Rocket - Orbit

View from above orbital plane
View from above orbital plane
View from above satellite
View from above satellite

Ground track
Ground track

The orbit data is extracted from the following two-line orbital elements,

1 11289U 79021B   24177.12299978  .00000176  00000-0  86630-4 0  9999
2 11289  81.2455 181.4795 0076107 153.6019 206.9063 14.11856619332702
Epoch (UTC): 25 June 2024 02:57:07
Eccentricity: 0.0076107
inclination: 81.2455°
perigee height: 798 km
apogee height: 908 km
right ascension of ascending node: 181.4795°
argument of perigee: 153.6019°
revolutions per day: 14.11856619
mean anomaly at epoch: 206.9063°
orbit number at epoch: 33270

The dashed part of the orbit path shows where the satellite is in the earth's shadow,  

DLR